Theta_e
321 320 320 321 323 324 322 321 321 322 323 326 327 326 328 330 331 328 326 325 325 324 324 322 322 321 321 320 317 316 314 312 311 311 312 314 315 315 316 318 321 318 321
318 320 318 318 318 318 318 319 321 321 322 321 323 322 323 324 323 324 326 328 326 324 324 324 323 325 320 321 320 318 317 315 312 313 313 312 314 315 317 314 316 317 316
313 312 314 314 314 314 315 315 316 316 316 317 318 318 319 319 318 318 318 320 322 323 323 323 323 322 321 321 318 318 317 319 316 314 314 314 314 314 313 312 313 315 321
312 311 311 311 312 312 313 314 315 315 314 314 314 315 315 315 315 315 314 313 312 314 315 317 318 319 320 320 319 318 319 317 318 316 316 315 315 315 312 313 309 311 312
311 309 309 310 309 309 310 311 312 312 312 313 312 312 312 312 314 309 307 307 307 307 309 310 310 313 316 314 313 313 314 315 315 314 314 314 313 310 309 312 309 308 308
308 308 308 308 308 307 307 308 309 309 309 310 309 309 308 311 306 304 303 302 304 305 305 307 309 313 312 310 309 310 310 309 308 310 312 312 312 309 309 307 306 305 303
307 308 307 306 305 304 304 304 303 303 304 304 305 305 305 305 300 299 300 298 300 301 302 303 305 309 308 308 308 307 307 307 308 308 307 308 310 312 309 307 307 305 305
305 306 306 305 303 302 302 301 301 301 300 300 300 301 301 303 298 296 298 296 296 297 299 300 301 303 303 305 306 306 306 307 307 309 309 309 311 313 312 314 313 313 310
304 303 303 303 301 300 298 297 297 295 295 295 296 296 295 295 296 296 296 297 297 296 297 298 300 300 299 298 300 300 301 302 305 304 303 303 302 303 308 315 311 310 308
301 301 300 299 297 296 294 293 293 291 292 293 292 293 294 295 296 295 295 294 294 294 296 297 299 299 297 296 298 299 298 300 303 305 309 308 303 305 303 311 313 309 305
298 297 297 295 292 291 290 290 290 291 291 291 291 292 294 296 295 295 295 295 294 295 296 296 297 297 295 295 295 298 298 300 302 305 307 307 309 309 309 308 311 311 307
293 293 291 290 290 291 290 290 291 291 290 290 290 292 294 295 296 295 294 294 296 295 295 297 297 295 295 294 295 295 294 296 300 301 300 300 301 307 309 308 310 313 312
289 287 288 289 290 289 289 289 288 289 288 289 290 291 292 295 296 296 294 294 295 296 298 297 295 294 293 294 295 295 295 296 297 298 299 300 301 304 306 310 311 313 313
286 288 288 287 288 288 288 288 288 287 287 288 289 290 292 293 294 295 295 296 295 296 296 295 295 294 294 294 295 296 297 299 299 298 299 301 302 302 303 305 308 309 308
286 287 286 286 287 287 288 288 288 289 289 288 289 291 291 291 293 293 293 293 293 293 292 292 291 293 294 295 298 300 303 304 302 301 300 300 301 303 304 304 306 306 306
285 285 286 286 287 288 288 288 291 291 291 291 291 290 293 293 292 292 291 291 290 290 291 290 291 292 294 296 298 302 305 305 307 305 304 303 303 304 305 306 309 308 309
285 286 287 287 287 287 288 288 287 292 294 293 292 292 292 292 291 291 291 290 289 289 289 290 291 294 296 299 303 305 306 308 309 308 307 306 305 306 303 304 305 310 310
288 289 288 288 288 289 289 290 290 291 292 295 296 294 294 293 292 290 290 290 292 292 292 293 295 297 301 304 306 309 309 309 311 310 309 309 307 306 305 303 303 308 310
287 287 288 289 290 291 292 293 295 295 295 296 297 297 296 295 293 292 290 292 293 295 297 298 302 304 306 309 309 310 310 311 309 311 308 308 307 307 305 305 305 299 303
287 288 288 288 290 292 295 294 294 294 294 295 297 297 297 296 299 300 299 297 297 298 300 301 304 306 309 310 311 313 313 311 313 313 312 308 309 309 307 308 309 308 310
287 287 286 289 289 291 292 292 293 292 292 295 296 296 289 296 299 301 302 302 301 302 303 304 307 308 309 311 313 312 312 312 312 314 311 310 311 311 311 311 311 312 313
287 287 287 286 287 287 286 291 291 290 290 293 293 294 289 294 295 296 297 299 301 304 306 307 308 309 311 315 313 313 312 313 314 315 313 312 314 313 313 312 313 314 312
286 286 286 285 286 285 285 287 288 288 288 290 290 290 290 291 292 293 294 295 298 303 307 308 309 311 314 315 315 312 307 311 315 316 315 315 315 315 315 313 314 314 312
285 284 284 284 284 284 284 285 285 285 286 287 288 288 288 289 290 291 292 295 300 304 309 310 312 312 312 309 304 304 301 301 315 316 314 314 314 312 315 315 315 313 310
285 284 284 284 283 283 283 284 284 284 285 285 286 286 287 288 288 290 291 295 297 306 306 310 310 305 301 301 298 295 291 289 298 299 313 312 312 311 313 315 313 309 305
285 285 285 285 284 284 283 283 283 284 284 284 285 285 286 286 287 288 289 292 293 300 305 304 300 297 297 296 293 289 288 289 293 292 312 311 308 307 308 311 313 308 304
Wind_Speed
7 8 9 8 8 8 7 6 5 5 6 7 6 6 6 5 6 5 7 7 8 8 7 7 9 7 6 6 4 4 4 4 8 4 4 3 4 4 6 5 5 6 6
8 8 7 8 7 7 6 7 6 6 5 3 2 3 4 5 4 4 7 7 7 8 10 7 9 7 8 8 5 8 6 5 4 12 6 4 6 6 6 5 5 4 5
7 6 7 8 6 6 6 6 6 7 7 7 6 7 6 5 5 6 5 6 7 7 8 10 13 9 10 8 7 6 5 4 4 4 5 3 4 3 4 4 5 2 3
7 7 6 7 6 5 5 5 5 5 5 6 6 6 6 6 6 7 8 7 6 5 5 6 6 7 8 9 7 8 7 8 8 8 9 8 7 6 4 8 5 3 4
7 7 6 6 6 6 6 6 6 6 6 7 7 7 7 6 5 5 5 6 7 7 6 6 6 6 8 6 4 5 5 6 7 9 10 9 8 3 5 5 4 3 4
6 6 7 7 7 7 8 8 7 7 7 5 6 5 6 4 9 8 6 5 6 6 6 5 6 7 7 7 5 7 7 9 10 6 7 9 10 4 4 5 4 3 3
6 7 7 7 7 7 6 6 7 7 6 7 7 7 7 6 4 6 6 4 5 6 6 6 7 8 7 8 10 11 11 10 11 9 11 12 12 9 5 4 5 4 5
6 6 6 6 6 7 8 9 8 6 7 6 7 7 7 6 2 0 8 6 5 6 7 8 9 9 7 8 10 12 13 10 8 8 9 9 9 8 7 9 11 9 3
6 6 6 8 9 9 9 7 6 6 6 6 8 8 8 7 12 15 15 12 12 14 13 14 14 15 15 15 13 15 16 15 11 16 20 19 17 16 13 6 6 7 7
8 9 9 8 8 7 7 8 6 5 8 8 12 12 15 14 13 12 12 6 9 10 11 11 15 13 14 14 12 12 12 13 12 13 11 8 9 11 17 13 10 8 5
9 9 10 9 9 8 9 9 10 10 10 10 11 11 12 10 11 14 15 8 8 8 8 8 8 11 13 15 13 10 12 12 14 12 9 6 6 6 6 7 9 7 7
9 9 9 9 9 9 10 10 10 9 10 11 11 11 8 9 11 11 13 13 14 9 10 9 10 13 12 11 11 14 15 13 8 9 8 8 7 7 6 6 9 9 9
9 9 10 10 10 9 10 11 10 9 8 9 9 9 9 8 7 10 14 14 11 6 7 10 12 12 13 12 18 19 17 8 9 10 10 9 8 8 5 4 5 6 8
9 10 10 10 12 10 8 7 7 8 8 8 8 9 9 9 8 7 7 7 7 8 10 7 13 16 20 19 16 14 10 10 10 10 10 10 8 5 7 6 5 6 7
9 9 9 8 9 10 8 8 8 9 9 9 10 9 9 10 10 9 8 8 8 9 11 9 9 9 10 10 10 11 10 9 10 11 10 9 9 8 7 5 5 5 7
9 7 7 7 7 7 8 9 10 16 21 22 23 18 11 17 20 18 15 14 15 14 7 8 9 9 11 11 10 10 9 11 10 10 11 11 10 9 8 4 6 7 7
8 8 7 8 7 7 7 6 8 12 17 17 15 16 15 16 17 16 14 14 14 9 6 8 10 10 12 11 10 10 9 8 11 12 12 13 11 10 7 8 5 5 4
8 13 7 7 7 7 7 7 7 8 9 10 11 10 12 11 12 9 10 7 5 6 6 8 9 10 12 11 9 6 6 7 7 0 4 10 11 10 9 8 7 5 4
7 6 7 7 7 9 8 7 7 6 7 8 9 9 10 15 12 10 4 5 5 7 6 6 8 10 10 9 6 8 9 7 6 2 5 8 10 9 8 8 7 8 7
6 11 9 7 8 7 5 6 7 7 8 8 8 9 11 7 9 8 4 5 5 5 5 7 8 9 9 8 8 9 9 9 6 4 5 6 7 7 6 6 6 6 3
5 6 9 7 7 7 8 6 6 7 8 8 8 9 15 8 10 11 9 7 5 3 5 6 8 7 7 8 6 4 7 11 8 5 5 3 5 7 5 6 5 5 7
5 6 6 6 6 7 7 8 7 8 9 10 10 11 15 10 10 10 11 10 10 9 6 7 6 6 8 6 7 7 6 3 3 3 3 3 4 5 5 5 5 6 7
5 6 6 6 7 8 7 8 8 9 9 9 10 10 10 10 10 10 11 11 10 9 7 5 7 6 4 6 8 8 7 4 6 2 3 1 1 3 3 4 4 7 7
6 6 7 7 7 7 8 8 8 10 9 9 10 10 10 11 11 12 11 11 13 14 10 6 7 11 12 12 12 12 10 8 3 6 6 7 6 7 5 7 9 10 9
6 7 7 8 8 8 8 8 9 9 9 9 10 9 10 10 11 12 12 12 12 11 15 9 9 14 17 19 17 18 14 12 12 8 8 10 13 10 6 7 9 9 10
8 8 8 7 8 9 8 9 9 9 10 10 10 10 10 10 11 11 12 14 13 13 14 11 13 18 18 13 17 18 20 19 15 13 7 8 9 8 7 7 11 8 10
Wind_Direction
63 59 49 44 38 44 49 46 35 21 38 4 18 339 317 279 248 227 229 228 223 232 235 225 234 229 232 236 238 233 235 196 258 269 219 229 241 265 272 271 260 274 264
36 45 47 44 38 36 14 7 356 353 348 341 317 358 317 307 289 270 264 252 233 237 246 239 245 246 237 239 236 243 242 230 212 269 252 245 261 256 229 228 253 265 288
51 57 42 33 24 19 3 348 346 340 336 337 342 342 327 317 308 300 269 262 270 275 269 260 260 253 254 251 243 241 242 242 230 234 262 231 245 262 270 258 241 211 249
40 33 20 10 357 329 318 306 301 303 315 329 302 292 294 299 303 302 299 305 310 308 307 303 308 293 274 269 251 243 244 257 257 256 263 261 253 243 229 266 270 227 250
19 14 349 345 330 324 311 303 304 288 261 255 261 266 273 283 286 312 324 306 300 297 293 290 283 274 286 265 271 281 274 262 264 262 262 259 254 228 220 249 217 222 247
7 347 342 342 335 325 321 322 314 320 325 330 326 322 317 304 306 4 30 347 323 310 303 311 307 300 289 299 290 253 261 293 273 254 262 259 257 220 217 206 191 189 247
3 350 341 335 331 340 342 346 343 338 343 343 348 352 347 353 65 70 28 330 301 291 294 289 291 284 302 295 285 288 288 271 237 257 266 254 254 234 210 216 209 185 196
355 333 324 338 344 346 2 15 5 3 354 340 333 334 326 317 155 87 328 311 302 284 284 288 284 277 264 277 283 281 274 264 267 269 251 250 251 256 227 237 244 250 212
337 341 359 11 20 10 357 356 352 355 346 336 329 324 315 301 296 297 300 296 291 287 283 277 273 271 265 265 275 277 274 268 264 260 256 254 252 246 238 235 222 211 227
6 16 26 20 10 359 4 344 329 318 302 302 297 286 282 284 289 286 287 279 278 285 282 274 272 266 270 264 265 268 268 270 272 269 265 251 250 248 233 226 234 225 216
16 9 6 12 359 344 327 314 311 308 304 299 293 289 280 274 280 273 268 263 262 271 274 279 276 268 263 265 261 266 262 271 278 260 257 264 265 251 241 217 217 204 201
7 2 358 343 331 325 315 309 306 301 300 299 296 291 285 285 282 285 281 268 272 272 273 271 271 266 270 272 276 270 254 252 260 269 264 257 256 257 241 212 210 207 209
1 345 333 328 323 323 318 316 314 310 298 298 299 299 298 291 289 289 286 289 283 292 282 279 285 285 285 283 271 265 265 252 246 243 247 247 240 243 239 213 199 199 212
340 333 327 324 323 319 311 301 298 296 295 290 290 289 292 297 294 284 283 289 303 307 309 311 296 284 273 266 273 267 253 243 233 231 235 236 232 220 223 217 208 200 217
327 326 325 318 310 305 296 289 284 279 270 278 281 282 287 286 279 273 274 283 286 287 300 291 286 282 284 277 270 263 253 242 230 227 227 221 217 214 219 197 202 208 220
322 319 310 309 305 299 298 303 283 265 275 275 268 262 274 266 275 276 272 271 271 275 278 280 282 273 271 273 273 268 258 247 237 223 216 215 212 203 199 182 199 203 209
302 302 302 307 299 298 299 300 305 312 302 282 276 278 274 266 279 277 271 273 271 269 253 261 263 271 271 270 266 269 262 247 246 232 218 204 199 197 187 211 221 195 178
310 313 306 297 298 299 297 296 287 291 305 318 320 304 296 282 278 268 250 272 281 222 239 255 266 270 272 284 294 306 301 288 311 4 248 193 180 177 176 191 200 197 176
324 312 313 309 303 300 295 298 312 320 317 319 326 332 332 332 297 275 219 238 265 276 270 273 281 284 300 314 327 323 313 318 321 59 61 102 137 155 168 172 185 180 187
313 318 324 313 306 299 336 336 342 339 332 331 335 354 343 325 337 325 261 238 246 267 292 296 296 306 324 331 338 340 345 348 15 43 105 125 137 144 149 148 154 162 161
326 338 329 330 346 347 341 334 342 340 337 338 351 355 347 349 355 358 2 355 329 314 289 298 303 313 315 318 341 47 319 337 332 33 70 96 163 150 119 122 126 138 131
344 348 349 349 349 352 346 351 358 351 346 0 352 353 354 1 357 351 349 341 334 331 318 306 330 343 338 351 331 332 323 354 309 303 64 21 52 93 103 112 117 114 132
2 0 3 359 358 359 4 3 2 359 353 356 355 355 355 352 349 347 337 332 325 317 305 316 341 350 8 358 357 6 360 38 213 126 114 113 321 129 137 133 127 125 130
22 17 17 13 11 10 10 11 6 2 358 357 357 356 353 348 346 342 342 335 343 340 339 349 20 8 356 5 4 2 352 346 62 100 127 74 76 118 130 136 141 138 129
25 26 26 23 20 16 12 13 12 9 3 1 0 357 354 351 351 347 347 350 350 1 18 31 30 31 23 15 4 354 343 2 27 34 60 66 56 54 64 94 108 106 110
36 33 31 28 27 25 22 19 17 13 10 5 2 358 359 1 353 353 349 357 356 3 15 24 30 29 18 11 -0 357 10 9 11 9 45 58 57 53 61 84 120 122 131